www.pogodaiklimat.ru

ПОГОДА в Биг Рапидсе, MI

  • Прогноз погоды в Биг Рапидсе
  • Монитор погоды в Биг Рапидсе
  • Климат в Биг Рапидсе

АРХИВ ПОГОДЫ в Биг Рапидсе

Время (UTC), дата Ветер
(напр.,м/с)
 
Видим.   Явления Облачность Т
(С)
Тd
(С)
f
(%)
Тe
(С)
Тes
(С)
Комфортность

P
(гПа)

Po
(гПа)
Тmin
(С)
Tmax
(С)
R
(мм)
SD
(см)
13:15 21.03 С  16 км    10/10 210 м  +1.8  +1.5  98  -1  -1      978.0         
13:35 21.03 С  16 км    10/10 210 м  +2.1  +1.7  97  -1  -1      978.3         
13:36 21.03 С  16 км    10/10 210 м  +2.1  +1.7  97  -1  -1      978.3         
13:55 21.03 СЗ  16 км    10/10 210 м  +2.4  +1.8  96  -2  -2      978.3         
13:56 21.03 СЗ  16 км    10/10 210 м  +2.5  +1.8  95  -0  -0      978.3         
14:15 21.03 С  16 км    10/10 270 м  +2.6  +1.9  95  -1  -1      978.0         
14:16 21.03 С  16 км    10/10 270 м  +2.7  +1.9  94  -1  -1      978.0         
14:35 21.03 СЗ  16 км    10/10 270 м  +3.1  +2.1  93  -1  -1      978.0         
14:55 21.03 СЗ  16 км    10/10 330 м  +3.0  +1.7  91  -1  -1      978.0         
15:15 21.03 СЗ  16 км    10/10 330 м  +3.3  +1.7  89  -1  -1      978.0         
15:35 21.03 СЗ  16 км    10/10 270 м  +2.8  +1.2  89  -1  -1      978.0         
15:36 21.03 СЗ  16 км    10/10 270 м  +2.9  +1.2  89  -1  -1      978.0         
15:55 21.03 СЗ  16 км    10/10 270 м  +2.8  +1.3  90  0  0      978.0         
15:56 21.03 С  16 км    10/10 270 м  +2.8  +1.3  90  0  0      978.0         
16:15 21.03 СЗ  16 км    10/10 270 м  +3.3  +1.7  89  -0  -0      977.6         
16:35 21.03 СЗ  16 км    10/10 270 м  +3.4  +1.6  88  -1  -1      977.6         
16:55 21.03 СЗ  16 км    10/10 270 м  +3.4  +1.6  88  +1  +1      977.3  +0.7  +3.5     
17:15 21.03   16 км    10/10 270 м  +3.5  +1.6  87  +2  +2      977.3         
17:35 21.03 СЗ  16 км    10/10 330 м  +3.7  +1.6  86  -0  -0      977.0         
17:55 21.03 СЗ  16 км    10/10 330 м  +3.9  +1.6  85  -0  -0      977.0         
18:15 21.03 СЗ  16 км    10/10 330 м  +3.7  +1.6  86  -1  -1      976.3         
18:16 21.03 З  16 км    10/10 330 м  +3.6  +1.6  87  -1  -1      976.3         
18:35 21.03 СЗ  16 км    10/10 330 м  +3.6  +1.6  87  -0  -0      976.3         
18:36 21.03 СЗ  16 км    10/10 330 м  +3.7  +1.6  86  -0  -0      976.3         
18:55 21.03 З  16 км    10/10 330 м  +3.8  +1.8  87  -1  -1      976.3         
19:15 21.03 З  16 км    10/10 390 м  +4.1  +1.7  84  -0  -0      976.0         
19:35 21.03 З  16 км    10/10 450 м  +4.0  +1.5  84  -1  -1      975.7         
19:55 21.03 З  16 км    10/10 450 м  +4.2  +1.6  83  -0  -0      975.4         
19:56 21.03 З  16 км    10/10 450 м  +4.3  +1.6  83  -0  -0      975.4         
20:15 21.03 З  4
{7} 
16 км    10/10 540 м  +4.1  +1.0  80  -1  -1      975.7         
20:16 21.03 З  4
{7} 
16 км    10/10 540 м  +4.0  +1.0  81  -1  -1      975.7         
20:35 21.03 З  16 км    10/10 540 м  +3.8  +0.8  81  -1  -1      975.4         
20:55 21.03 З  16 км    10/10 600 м  +3.6  +0.5  80  -2  -2      975.4         
21:15 21.03 З  16 км    10/10 540 м  +3.4  +0.2  80  -1  -1      975.4         
21:16 21.03 З  16 км    10/10 540 м  +3.4  +0.2  80  -1  -1      975.4         
21:35 21.03 З  16 км    10/10 540 м  +3.1  0.0  80  -3  -3      975.4         
21:55 21.03 З  16 км    10/10 540 м  +3.0  0.0  81  -2  -2      975.0         
22:15 21.03 З  16 км    10/10 540 м  +3.0  0.0  81  -2  -2      975.4         
22:16 21.03 З  16 км    10/10 540 м  +3.0  0.0  81  -2  -2      975.4         
22:35 21.03 З  16 км    10/10 600 м  +2.8  -0.2  81  -2  -2      975.4         
22:55 21.03 ЮЗ  16 км    10/10 720 м  +2.5  -0.2  82  0  0      975.4  +2.5  +4.3     
23:15 21.03 ЮЗ  16 км    10/10 780 м  +2.4  -0.3  82  -0  -0      975.4         
23:16 21.03 ЮЗ  16 км    8/8 780 м  +2.3  -0.4  82  -0  -0      975.4         
23:35 21.03 ЮЗ  16 км    5/5 780 м  +2.0  -0.5  83  -1  -1      975.0         
23:36 21.03 ЮЗ  16 км    5/5 780 м  +2.0  -0.5  83  -1  -1      975.0         
23:55 21.03   16 км    5/0 2250 м
[средняя] 
+1.5  -0.5  87  0  0      975.0         
00:15 22.03   16 км    10/0 2250 м
[средняя] 
+1.5  -0.4  87  0  0      975.0         
00:16 22.03 ЮЗ  16 км    10/0 2250 м
[средняя] 
+1.5  -0.4  87  -1  -1      975.0         

 

Местоположение метеостанции Roben-Hood Airport: широта 43.7225 долгота -85.5042 высота над уровнем моря 302 м.

В архиве по умолчанию представлена погода в Биг Рапидсе за последние 1-2 суток. Обновление информации о фактической погоде в базе происходит ежечасно! Архивные данные за месяц целиком и за предыдущие месяцы Вы можете получить, выбрав интересующий диапазон дат из раскрывающегося списка и нажав кнопку "Ввод!".

Внимание! Архив погоды МЕТАР в базе сайта хранится не более 60 дней. Нет смысла пытаться выбрать более раннюю дату.

Внимание! Время в таблицах - всемирное. Для получения местного времени необходимо прибавить поправку, которая в Биг Рапидсе равна -5 ч.

Ветер - указаны скорость ветра в м/с и направление, откуда дует ветер: С - северный, СВ - северо-восточный, В - восточный, ЮВ - юго-восточный, Ю - южный, ЮЗ - юго-западный, З - западный, СЗ - северо-западный.
Видимость - горизонтальная дальность видимости в метрах или километрах. При видимости от 1 до 10 км при отсутствии осадков обычно наблюдается дымка, при ухудшении видимости до 1 км и менее - туман. В сухую погоду видимость может ухудшаться дымом, пылью или мглою.
Атмосферные явления - указаны явления, наблюдавшиеся в указанный момент времени.
Облачность - указаны через наклонную черту верхняя и нижняя облачность в баллах и высота нижней границы облаков в метрах. Внимание: облачность, как и прочие метеорологические величины в США измеряются автоматическими метеостанциями. Указанные значения в баллах носят условный характер и показывают процент времени, в течение которого, в среднем, лазерный луч высотомера отражался от облаков обратно.
T - Температура воздуха - температура, измеренная на высоте 2 м над землей.
Td - Температура точки росы - температура, при понижении до которой содержащийся в воздухе водяной пар достигнет насыщения.
f - Относительная влажность воздуха - влажноcть воздуха, измеренная на высоте 2 м над землей.
Te - Эффективная температура - температура, которую ощущает одетый по сезону человек в тени. Характеристика душности погоды. При расчете учитывается влияние влажности воздуха и скорости ветра на теплоощущения человека.
Tes - Эффективная температура на солнце - температура, которую ощущает человек, с поправкой на солнечный нагрев. Характеристика знойности погоды. Зависит от высоты солнца над горизонтом, облачности и скорости ветра. Ночью, в пасмурную погоду, а также при ветре 12 м/с и более поправка равна нулю.
P - Атмосферное давление - приведенное к уровню моря атмосферное давление.
Po - Атмосферное давление - измеренное на уровне метеостанции атмосферное давление.
Tmin - Минимальная температура - минимум температуры воздуха на высоте 2 м над землей.
Tmax - Максимальная температура - максимум температуры воздуха на высоте 2 м над землей.
R - Количество осадков - Количество выпавших осадков за 3 или 6 часов, мм.
SD - Снежный покров - Высота снежного покрова, см.